{"data":{"norad_id":58483,"intl_designator":"2023-186L","name":"STARLINK-30994","alt_names":[],"object_type":"PAYLOAD","status":"ACTIVE","operator":null,"country":"US","launch_date":"2023-12-03","launch_site_code":"AFETR","launch_vehicle":null,"mission":null,"orbit_class":"UNKNOWN","rcs_meters":null,"size_class":null,"mass_kg":null,"dimensions":null,"purposes":["comms"],"wikipedia_slug":null,"has_3d_model":false,"image_url":null,"decayed_at":null,"tle_current":{"epoch":"2026-09-20T22:47:28.978944Z","epoch_age_seconds":108193,"freshness":"FRESH","line1":"1 58483U 23186L   26263.94964096  .00071290  00000+0  14608-2 0  9993","line2":"2 58483  42.9920 227.2683 0016347 139.2587 220.9496 15.45032667157781","mean_motion":15.45032667,"eccentricity":0.0016347,"inclination_deg":42.992,"raan_deg":227.2683,"arg_perigee_deg":139.2587,"mean_anomaly_deg":220.9496,"bstar":0.0014608,"rev_number":15778,"period_min":93.201912862856,"perigee_km":420.15073093611,"apogee_km":442.41344570346,"semimajor_km":6809.4190883198,"source":"CELESTRAK","updated_at":"2026-09-21T09:00:33.882109Z"}}}